Delta Virtual Airport Information Service

Chicago Midway International Airport

ICAO: KMDW Country: United States
Latitude: 41.786 Longitude: -87.7524
Latest Arrival : SWA2623 (G) (KPHX-KMDW) Latest Departure : SWA3046 (A) (KMDW-KATL)


WX CaptureLIVE
Data provided by noaa.gov | Fetched at 04:44:36

METAR : KMDW 030953Z 14003KT 10SM BKN080 OVC110 07/01 A3004 RMK AO2 SLP176 T00720006

TAF : KMDW 030859Z 0309/0412 20004KT P6SM OVC090 FM031300 13008KT P6SM BKN070 FM032100 10007KT P6SM SCT060 FM040100 36005KT P6SM SCT050 FM040800 33009KT P6SM SCT200


Runway Data for KMDW
Data provided by openaviationdata.com

Runway ID Mag Var Hdg Length Elevation Surface ILS Freq ILS Id ILS Slope
04L -1 44° 5504 ft 620 ft Asphalt -- -- --
04R -1 44° 6443 ft 620 ft Asphalt 111.5 IHKH 3
13L -1 134° 5139 ft 620 ft Asphalt -- -- --
13R -1 134° 3856 ft 620 ft Concrete -- -- --
13C -1 134° 6519 ft 620 ft Concrete 109.9 IMDW 3
22L -1 224° 6443 ft 620 ft Asphalt -- -- --
22R -1 224° 5504 ft 620 ft Asphalt -- -- --
31L -1 314° 3856 ft 620 ft Concrete -- -- --
31R -1 314° 5139 ft 620 ft Asphalt -- -- --
31C -1 314° 6519 ft 620 ft Concrete 109.9 IMXT 3

Chicago Midway International Airport, United States
Use only for reference purposes



Not for navigational purposes.